Accueil
METAR-TAF:

METAR-TAF

Aéroports :

Romorantin, France

Pruniers

latitude: 47-19N, longitude: 001-41E, altitude: 85 m

Observation

Le bulletin a été fait il y a 16 minutes, à 03:30 UTC
Vent 11 kt de sud-est
Température 9°C
Humidité 87%
Pression 973 hPa
Visibilité 10 km ou plus
Nuages fragmentés à une hauteur de 3600 ft
Ciel couvert à une hauteur de 4400 ft
pluie faible

METAR: LFYR 110330Z AUTO 13011KT 9999 -RA BKN036 OVC044 09/07 Q0973

Heure: 04:46 (03:46 UTC)


TAF: absent

Observations et prévisions météorologiques de plus de 4000 aéroports (messages METAR et TAF).

Les stations disponibles sont représentées par des disques jaunes et rouges sur la carte.

Passer la souris dessus pour voir le nom de la station.

Cliquer dessus pour voir les observations et prévisions météorologiques.

Pour changer de carte: cliquez sur les boutons verts avec une croix noire pour zoomer, sur le bouton vert avec un tiret pour effectuer un zoom arrière, ou sur les flèches vertes pour les cartes adjacentes.


METAR-TAF: